Location: Zagreb
(45.8000°N, 16.0000°E)
Time: 01:49:32
(UTC+01:00)

Courier 1B - Pass Details

Date: 11 October 2020
Orbit: 963 x 1209 km, 28.3° (Epoch: 25 October)

Event Time Altitude Azimuth Distance (km) Brightness Sun altitude
Rises 18:49:43 0° 222° (SW) 3,884 11.4 -6.5°
Reaches altitude 10° 18:53:33 10° 203° (SSW) 2,979 10.4 -7.2°
Maximum altitude 18:57:55 17° 166° (SSE) 2,557 9.6 -8.0°
Drops below altitude 10° 19:02:23 10° 130° (SE) 3,079 9.7 -8.7°
Enters shadow 19:04:24 - 119° (ESE) 3,538 9.9 -9.1°
